Regional Weather Roundup
Issued by NWS

Home | Current Version | Previous Version | Graphics & Text | Print | Product List | Glossary On
Versions: 1 2 3 4 5 6 7 8 9 10 11 12 13 14 15 16 17 18 19 20 21 22 23 24 25 26 27 28 29 30 31 32 33 34 35 36 37 38 39 40 41 42 43 44 45 46 47 48 49
000
ASUS45 KBOU 182307
RWRCO

WEATHER ROUNDUP FOR COLORADO
NATIONAL WEATHER SERVICE DENVER/BOULDER CO
500 PM MDT THU SEP 18 2014

NOTE: "FAIR" INDICATES FEW OR NO CLOUDS BELOW 12000 FEET WITH NO
SIGNIFICANT WEATHER AND/OR OBSTRUCTIONS TO VISIBILITY.

COZ001>005-013-030-031-190000-
...NORTHWEST COLORADO...

CITY           SKY/WX    TMP DP  RH WIND       PRES   REMARKS
CRAIG          PTSUNNY   84  37  18 VRB3      29.98F
HAYDEN         SUNNY     82  36  18 W6        30.01F
MEEKER         SUNNY     84  35  17 SW9       30.00F
MOUNT WERNER   NOT AVBL
STEAMBOAT SPGS SUNNY     80  33  18 NE5       30.04S
WALDEN         SUNNY     75  25  15 SW6       30.14F
$$

COZ006>008-011-190000-
...WEST CENTRAL VALLEYS...

CITY           SKY/WX    TMP DP  RH WIND       PRES   REMARKS
GRAND JUNCTION SUNNY     86  46  24 W10       29.88F
MONTROSE       MOSUNNY   87  37  17 W14       29.97F
EAGLE          MOSUNNY   84  34  16 CALM      30.01F
RIFLE          SUNNY     86  36  16 W12       29.93F
DELTA          MOSUNNY   92  34  12 SW6       29.91F
NUCLA          MOSUNNY   84  34  16 N3        30.01F
$$

COZ017>023-064>068-190000-
...SOUTHWEST COLORADO...

CITY           SKY/WX    TMP DP  RH WIND       PRES   REMARKS
DURANGO        SUNNY     81  28  14 CALM      30.03F
CORTEZ         SUNNY     83  39  21 SW9       29.99F
PAGOSA SPRINGS SUNNY     80  25  13 W7        30.11S
TELLURIDE      NOT AVBL
WOLF CREEK PAS CLOUDY    59  28  31 W7        30.45F
$$

COZ009-010-012-014-032>034-037-058>063-190000-
...CENTRAL COLORADO...

CITY           SKY/WX    TMP DP  RH WIND       PRES   REMARKS
ASPEN          MOSUNNY   77  34  21 NW8       30.09F
BUENA VISTA    MOSUNNY   79  22  12 S6G16     30.13F
COPPER MTN     MOSUNNY   61  18  18 SE12      30.47S
BERTHOUD PASS  PTSUNNY   50  48  93 MISG      30.52F
COTTONWOOD PAS MOSUNNY   73  12   9 SE7G18    30.31S
GUNNISON       MOSUNNY   79  27  14 E12G22    30.11S
KREMMLING      MOSUNNY   79  25  13 CALM      30.08F
LEADVILLE      MOSUNNY   70  18  13 S9        30.27F
MONARCH PASS   PTSUNNY   54  28  37 E9        30.57S
SALIDA         MOSUNNY   78  29  17 SE10G16   30.17S
SUNLIGHT       SUNNY     64  36  34 W3        30.38F
WILKERSON PASS NOT AVBL
$$

COZ069>075-190000-
...SAN LUIS VALLEY/SANGRE DE CRISTO MOUNTAINS...

CITY           SKY/WX    TMP DP  RH WIND       PRES   REMARKS
ALAMOSA        MOSUNNY   80  30  16 VRB3      30.10S
LA VETA PASS   SUNNY     63  30  29 NE14G22   30.34S
SAGUACHE       NOT AVBL
$$

COZ035-036-038>040-190000-
...NORTHERN COLORADO FRONT RANGE...

CITY           SKY/WX    TMP DP  RH WIND       PRES   REMARKS
DENVER INTL AP MOSUNNY   88  36  15 SE14      29.94F
DMNS CITY PARK   N/A     88  32  13 S8        29.93R
AURORA         MOSUNNY   87  32  13 S8        29.97F
FRONT RANGE AP NOT AVBL
ERIE MUNI ARPT SUNNY     90  30  11 SE8       29.92S
BOULDER MUN AP SUNNY     86  36  16 N3        29.93S
CENTENNIAL     MOSUNNY   86  33  15 S17       29.98F
BROOMFIELD     MOSUNNY   90  36  14 SE6       29.96F
FORT COLLINS   SUNNY     90  36  14 SE9       29.90F
LONGMONT       SUNNY     92  32  12 SE7       29.93F
$$

COZ041-046-047-076>085-087-088-190000-
...PIKES PEAK/PALMER DIVIDE AND SOUTHERN FOOTHILLS...

CITY           SKY/WX    TMP DP  RH WIND       PRES   REMARKS
COLO. SPRINGS  MOSUNNY   84  30  14 S14G22    30.05S
A. F. ACADEMY  SUNNY     81  32  16 S17G26    30.06S
ELLICOTT       NOT AVBL
FALCON         SUNNY     80  30  16 S14G20    30.12S
FORT CARSON    SUNNY     84  34  16 SE16      30.02S
LIMON          SUNNY     85  31  14 S16       29.99S
MONUMENT HILL  SUNNY     79  30  17 S18       30.10S
TRINIDAD       SUNNY     82  39  21 SE17G25   30.03S
$$

COZ042>045-048>051-090-091-190000-
...NORTHEAST COLORADO...

CITY           SKY/WX    TMP DP  RH WIND       PRES   REMARKS
GREELEY ARPT   SUNNY     90  39  17 SE6       29.90F
AKRON          SUNNY     86  50  28 SE14      29.93F
BURLINGTON     SUNNY     90  35  14 S10G18    29.93S
WRAY           SUNNY     86  62  44 E12G20    29.89F
STERLING       SUNNY     91  57  31 SE6       29.87F
HOLYOKE        SUNNY     82  63  51 SE9G16    29.90F
FORT MORGAN    SUNNY     90  38  16 E7        29.91F
$$

COZ086-089-092>099-190000-
...SOUTHEAST COLORADO...

CITY           SKY/WX    TMP DP  RH WIND       PRES   REMARKS
PUEBLO         SUNNY     90  32  12 SE10G18   29.93S
LA JUNTA       SUNNY     90  39  16 SE17G23   29.91F
LAMAR          SUNNY     89  50  26 S18G25    29.90R
SPRINGFIELD      N/A     80  55  42 S17       29.98F
$$


USA.gov is the U.S. government's official web portal to all federal, state and local government web resources and services.